Location: San Antonio
(29.4240°N, 98.4930°W)
Time: 02:08:40
(UTC-05:00)

ISS - All Passes

Search period start: 25 September 2016 00:00
Search period end: 05 October 2016 00:00
Orbit: 400 x 410 km, 51.6° (Epoch: 25 September)

Date Brightness Start Highest point End Pass type
(mag) Time Alt. Az. Time Alt. Az. Time Alt. Az.
25 Sep - 05:36:58 10° NNW 05:40:09 47° NE 05:43:20 10° ESE visible
25 Sep - 20:36:28 10° S 20:39:15 27° SE 20:42:04 10° ENE visible
25 Sep - 22:13:23 10° W 22:15:43 18° NW 22:18:05 10° N visible
26 Sep - 04:45:20 10° NNW 04:48:00 23° NE 04:50:42 10° E visible
26 Sep - 06:21:49 10° WNW 06:24:24 21° SW 06:26:58 10° S visible
26 Sep - 19:45:58 10° SSE 19:47:21 12° SE 19:48:45 10° E visible
26 Sep - 21:20:32 10° WSW 21:23:33 35° NW 21:26:35 10° NNE visible
27 Sep - 03:54:16 10° N 03:55:46 12° NE 03:57:16 10° ENE night (unlit)
27 Sep - 05:29:15 10° NW 05:32:27 49° SW 05:35:38 10° SSE visible
27 Sep - 20:28:13 10° SW 20:31:27 86° NW 20:34:43 10° NE visible
28 Sep - 04:37:09 10° NW 04:40:25 65° NE 04:43:40 10° SE night (unlit)
28 Sep - 19:36:26 10° SSW 19:39:27 37° SE 19:42:28 10° ENE daylight
28 Sep - 21:14:07 10° WNW 21:16:01 15° NW 21:17:56 10° N visible
29 Sep - 03:45:21 10° NNW 03:48:17 29° NE 03:51:11 10° ESE night (unlit)
29 Sep - 05:22:28 10° W 05:24:33 16° SW 05:26:38 10° SSW night (unlit)
29 Sep - 18:45:21 10° SSE 18:47:29 16° SE 18:49:37 10° E daylight
29 Sep - 20:20:56 10° WSW 20:23:46 27° NW 20:26:36 10° NNE visible
30 Sep - 02:53:58 10° N 02:56:02 15° NE 02:58:04 10° ENE night (unlit)
30 Sep - 04:29:34 10° WNW 04:32:35 35° SW 04:35:37 10° SSE night (unlit)
30 Sep - 19:28:24 10° SW 19:31:36 61° NW 19:34:49 10° NE daylight
01 Oct - 03:37:15 10° NW 03:40:33 89° SW 03:43:50 10° SE night (unlit)
01 Oct - 18:36:22 10° SSW 18:39:31 52° SE 18:42:41 10° NE daylight
01 Oct - 20:14:58 10° WNW 20:16:13 12° NW 20:17:29 10° NNW visible
02 Oct - 02:45:19 10° NNW 02:48:24 38° NE 02:51:29 10° ESE night (unlit)
02 Oct - 04:23:18 10° WSW 04:24:35 12° SW 04:25:51 10° SSW night (unlit)
02 Oct - 17:44:56 10° S 17:47:30 22° SE 17:50:05 10° ENE daylight
02 Oct - 19:21:20 10° W 19:23:54 21° NW 19:26:28 10° NNE daylight
03 Oct - 01:53:42 10° N 01:56:09 19° NE 01:58:36 10° E night (unlit)
03 Oct - 03:29:49 10° WNW 03:32:36 26° SW 03:35:23 10° S night (unlit)
03 Oct - 18:28:33 10° WSW 18:31:40 44° NW 18:34:47 10° NNE daylight
04 Oct - 01:02:59 10° NNE 01:03:47 11° NE 01:04:36 10° NE night (unlit)
04 Oct - 02:37:18 10° NW 02:40:33 63° SW 02:43:47 10° SSE night (unlit)
04 Oct - 17:36:17 10° SW 17:39:30 75° SE 17:42:44 10° NE daylight
